[[{"header":{"parameterUnit":"m.s-1","parameterCategory":1,"la1":30.2992,"la2":30.254,"lo1":-89.0895,"lo2":-89.0443,"dy":0.0025,"dx":0.0025,"nx":19,"ny":19,"refTime":"2026-03-13T21:00:00:Z","depth":0,"parameterNumber":2,"parameterNumberName":"U-component_of_WINDS"},"data":[0,0,0,-0.7866,-0.7867,-0.7946,-0.7946,-0.804,-0.8041,0,0,0,0,0,0,0,0,0,0,0,-0.7837,-0.7837,-0.7866,-0.7867,-0.7946,-0.7946,-0.804,-0.8041,0,0,0,0,0,0,0,0,0,0,0,-0.7837,-0.7837,-0.7838,-0.7868,-0.7946,-0.7946,-0.804,-0.7984,0,0,0,0,0,0,0,0,0,0,-0.7908,-0.7876,-0.7837,-0.7838,-0.7868,-0.7946,-0.7947,-0.7981,-0.7987,-0.8001,0,-0.8011,0,-0.8027,-0.8047,-0.8047,0,0,0,-0.7872,-0.787,-0.7897,-0.7838,-0.7869,-0.7946,-0.7912,-0.7984,-0.7991,-0.8009,-0.8012,-0.8016,-0.8029,-0.8047,-0.8048,-0.8109,-0.8109,0,0,-0.7868,-0.7848,-0.7892,-0.7901,-0.7886,-0.7909,-0.7914,-0.7989,-0.7991,-0.8013,-0.8018,-0.803,-0.8048,-0.8049,-0.8109,-0.8109,0,0,0,-0.7852,-0.7845,-0.787,-0.7897,-0.7911,-0.7912,-0.7917,-0.7988,-0.7998,-0.8019,-0.8031,-0.8048,-0.8049,-0.8109,-0.8109,-0.8092,0,0,0,-0.785,-0.7836,-0.7867,-0.7856,-0.7909,-0.795,-0.7915,-0.7992,-0.8002,-0.8031,-0.8048,-0.805,-0.8109,-0.8109,-0.8092,-0.8087,0,0,0,-0.7834,-0.7834,-0.7843,-0.7855,-0.7888,-0.795,-0.7963,-0.7995,-0.8009,-0.8047,-0.8051,-0.8109,-0.8109,-0.8093,-0.8088,-0.8098,0,0,0,-0.7811,-0.7828,-0.7843,-0.7866,-0.7887,-0.7937,-0.7963,-0.8002,-0.8033,-0.8049,-0.8109,-0.8109,-0.8093,-0.8089,-0.8098,-0.8102,-0.8102,0,0,-0.7822,-0.7829,-0.7844,-0.7859,-0.7902,-0.7927,-0.7968,-0.8016,-0.8039,-0.8085,-0.8087,-0.8092,-0.8088,-0.8098,-0.8106,-0.8106,0,0,0,-0.7841,-0.7852,-0.7867,-0.7895,-0.793,-0.7961,-0.8005,-0.8022,-0.8062,-0.8058,-0.8099,-0.8097,-0.8103,-0.8106,-0.8106,-0.8113,-0.8109,-0.8109,-0.8109,-0.7829,-0.7855,-0.7882,-0.7918,-0.7944,-0.7988,-0.8012,-0.8044,-0.8064,-0.8073,-0.8087,-0.8089,-0.8092,-0.8092,-0.8099,-0.8092,-0.8091,-0.8091,-0.8091,-0.7847,-0.7866,-0.7891,-0.7926,-0.7954,-0.7985,-0.8028,-0.8041,-0.8075,-0.8081,-0.8088,-0.8094,-0.809,-0.8098,-0.809,-0.8091,-0.8091,-0.8091,-0.8091,-0.7842,-0.7856,-0.7875,-0.7917,-0.7947,-0.7983,-0.8013,-0.8038,-0.8062,-0.8069,-0.8086,-0.8087,-0.8091,-0.8075,-0.8075,-0.8075,-0.8075,-0.8075,-0.8075,-0.7829,-0.7852,-0.7873,-0.7911,-0.7932,-0.7962,-0.8006,-0.8027,-0.8058,-0.8074,-0.8074,-0.8093,-0.8085,-0.8082,-0.8076,-0.8076,-0.8075,-0.8075,-0.8075,-0.7838,-0.784,-0.7873,-0.7893,-0.794,-0.7967,-0.7998,-0.804,-0.8061,-0.8075,-0.8093,-0.8082,-0.8092,-0.8093,-0.8091,-0.8087,-0.8087,-0.8087,-0.8087,-0.7834,-0.7841,-0.788,-0.7911,-0.7944,-0.7974,-0.8012,-0.8046,-0.8082,-0.8097,-0.8101,-0.8101,-0.81,-0.811,-0.811,-0.8109,-0.811,-0.811,-0.811,-0.7842,-0.7852,-0.7879,-0.7912,-0.795,-0.7983,-0.8019,-0.8054,-0.8096,-0.8112,-0.811,-0.8109,-0.8108,-0.8106,-0.8123,-0.8123,-0.8121,0,0]},{"header":{"parameterUnit":"m.s-1","parameterCategory":1,"la1":30.2992,"la2":30.254,"lo1":-89.0895,"lo2":-89.0443,"dy":0.0025,"dx":0.0025,"nx":19,"ny":19,"refTime":"2026-03-13T21:00:00:Z","depth":0,"parameterNumber":3,"parameterNumberName":"V-component_of_WINDS"},"data":[0,0,0,1.9618,1.9619,1.9655,1.9656,1.9712,1.9713,0,0,0,0,0,0,0,0,0,0,0,1.9614,1.9615,1.9618,1.9619,1.9655,1.9656,1.9712,1.9713,0,0,0,0,0,0,0,0,0,0,0,1.9614,1.9615,1.9616,1.9619,1.9655,1.9656,1.9712,1.9681,0,0,0,0,0,0,0,0,0,0,1.9643,1.9647,1.9615,1.9616,1.9619,1.9655,1.9656,1.9679,1.9683,1.97,0,1.9719,0,1.9717,1.9717,1.9718,0,0,0,1.9613,1.9644,1.9648,1.9616,1.962,1.9655,1.9637,1.9681,1.9685,1.9705,1.972,1.9721,1.9718,1.9718,1.9718,1.9839,1.984,0,0,1.9611,1.9625,1.9645,1.9651,1.9647,1.9636,1.9639,1.9683,1.9699,1.972,1.9722,1.9719,1.9718,1.9719,1.9838,1.9839,0,0,0,1.9609,1.9624,1.9625,1.9649,1.9655,1.9637,1.964,1.9697,1.9697,1.9723,1.9719,1.9719,1.972,1.9837,1.9838,1.9891,0,0,0,1.9608,1.9622,1.9625,1.9633,1.9654,1.9677,1.9654,1.9694,1.9699,1.9719,1.9719,1.972,1.9836,1.9838,1.9887,1.9913,0,0,0,1.9609,1.9622,1.963,1.9634,1.965,1.9676,1.9678,1.9695,1.9697,1.9718,1.972,1.9836,1.9838,1.9884,1.9908,1.9947,0,0,0,1.9615,1.9677,1.9631,1.9699,1.965,1.9708,1.9677,1.972,1.9744,1.9719,1.9836,1.9838,1.9883,1.9905,1.9944,1.9982,1.9999,0,0,1.9701,1.9688,1.9727,1.9687,1.9756,1.9702,1.9779,1.9789,1.9779,1.9819,1.9822,1.9888,1.9908,1.9946,2.0093,2.0107,0,0,0,1.9759,1.9787,1.9802,1.9826,1.9835,1.9844,1.984,1.9844,1.9877,1.9803,1.9913,1.9924,1.9947,1.9964,1.9976,1.9993,1.9847,1.9847,1.9847,1.9899,1.9882,1.9945,1.9932,1.9955,1.995,1.9967,1.997,1.9947,1.9974,1.9985,2.0077,2.0097,2.0106,2.0124,2.0005,2.0005,2.0005,2.0005,2.0023,2.0059,2.0025,2.0073,2.0055,2.0095,2.0092,2.0074,2.0108,2.0067,2.0086,2.0041,2.0122,2.0137,2.0009,2.0009,2.0008,2.0008,2.0007,2.0112,2.0126,2.0128,2.0159,2.0184,2.0169,2.0202,2.0185,2.0168,2.0187,2.0196,2.0195,2.019,2.0192,2.0193,2.0193,2.0193,2.0193,2.0194,2.0203,2.0204,2.0234,2.0247,2.0259,2.0272,2.0266,2.0277,2.0284,2.0268,2.0268,2.0241,2.0133,2.0106,2.0198,2.0198,2.0197,2.0197,2.0196,2.0332,2.03,2.0347,2.0358,2.037,2.0395,2.0372,2.0394,2.0401,2.0417,2.0386,2.031,2.0296,2.0286,2.0263,2.0391,2.0391,2.0391,2.0391,2.0407,2.0397,2.044,2.0459,2.0475,2.0458,2.051,2.0505,2.0495,2.0498,2.0477,2.0445,2.0436,2.0427,2.0414,2.0392,2.055,2.055,2.0551,2.0484,2.0475,2.0523,2.0513,2.052,2.0527,2.0574,2.0596,2.0579,2.0557,2.0499,2.0492,2.044,2.0425,2.0401,2.0382,2.0341,0,0]}]]